Le nostre stazioni meteo in Italia

Pubblicità
Il mio iltempo24.it
Bourg-St-Maurice, Francia (7497): Temperatura & dewpoint: 17.07.2019 06:00:00 - 23.07.2019 06:00:00 (CEST)Bourg-St-Maurice, Francia (7497): Temperatura -20cm & Temperatura -100cm: 17.07.2019 06:00:00 - 23.07.2019 06:00:00 (CEST)Bourg-St-Maurice, Francia (7497): velocità del vento & gusts: 17.07.2019 06:00:00 - 23.07.2019 06:00:00 (CEST)Bourg-St-Maurice, Francia (7497): direzione del vento: 17.07.2019 06:00:00 - 23.07.2019 06:00:00 (CEST)Bourg-St-Maurice, Francia (7497): ore di luce: 17.07.2019 06:00:00 - 23.07.2019 06:00:00 (CEST)Bourg-St-Maurice, Francia (7497): precipitazioni: 17.07.2019 06:00:00 - 23.07.2019 06:00:00 (CEST)
Data & Tempo tt [°C] td [°C] tt -20cm [°C] tt -100cm [°C] ff [km/h] ff [kn] fx [km/h] fx [kn] dd sd [min] rr [mm]
23.07.2019 06:00:00 16,8 10,4 25,8 20,9 3 2 6 3 NNO 0 0,0
23.07.2019 05:00:00 17,5 10,6 26,1 20,9 3 1 5 3 N 0 0,0
23.07.2019 04:00:00 18,0 11,1 26,2 20,9 3 1 4 2 N 0 0,0
23.07.2019 03:00:00 18,6 10,9 26,4 20,9 0 0 5 3 N 0 0,0
23.07.2019 02:00:00 19,6 11,1 26,6 20,9 0 0 5 3 N 0 0,0
23.07.2019 01:00:00 20,6 11,2 26,7 20,9 0 0 5 3 N 0 0,0
23.07.2019 00:00:00 21,5 10,9 26,8 20,9 2 1 7 4 NNO 0 0,0
22.07.2019 23:00:00 23,1 10,2 26,9 20,9 3 2 10 6 N 0 0,0
22.07.2019 22:00:00 25,1 8,6 26,9 20,9 4 2 17 9 NNO 0 0,0
22.07.2019 21:00:00 26,7 7,7 26,9 20,9 7 4 20 11 ONO 0 0,0
22.07.2019 20:00:00 28,1 7,3 26,8 20,9 11 6 20 11 ONO 32 0,0
22.07.2019 19:00:00 30,6 8,9 26,6 20,8 3 2 22 12 O 53 0,0
22.07.2019 18:00:00 32,8 8,3 26,4 20,9 11 6 31 17 SSO 60 0,0
22.07.2019 17:00:00 33,5 8,2 26,1 20,9 13 7 31 17 S 60 0,0
22.07.2019 16:00:00 33,9 7,8 25,6 20,8 11 6 29 15 S 60 0,0
22.07.2019 15:00:00 34,1 8,7 25,2 20,8 8 5 23 12 S 60 0,0
22.07.2019 14:00:00 33,2 8,6 24,9 20,8 8 5 23 12 S 60 0,0
22.07.2019 13:00:00 32,1 9,6 24,6 20,8 8 4 16 9 S 60 0,0
22.07.2019 12:00:00 30,2 10,7 24,4 20,8 5 3 9 5 S 60 0,0
22.07.2019 11:00:00 27,8 11,4 24,4 20,8 5 3 10 5 ESE 60 0,0
22.07.2019 10:00:00 24,3 11,9 24,5 20,8 3 1 7 4 S 50 0,0
22.07.2019 09:00:00 21,4 12,3 24,7 20,8 2 1 6 3 S 60 0,0
22.07.2019 08:00:00 19,1 12,1 24,8 20,8 0 0 5 3 N 20 0,0
22.07.2019 07:00:00 17,2 11,5 24,9 20,8 2 1 4 2 N 0 0,0
22.07.2019 06:00:00 16,9 11,2 25,0 20,8 0 0 4 2 N 0 0,0
22.07.2019 05:00:00 17,1 10,7 25,2 20,8 0 0 6 3 N 0 0,0
22.07.2019 04:00:00 17,8 10,7 25,3 20,8 2 1 5 3 O 0 0,0
22.07.2019 03:00:00 18,4 11,2 25,5 20,8 2 1 6 3 N 0 0,0
22.07.2019 02:00:00 18,3 11,1 25,5 20,8 2 1 6 3 NNE 0 0,0
22.07.2019 01:00:00 19,5 11,0 25,6 20,7 3 2 6 3 N 0 0,0
22.07.2019 00:00:00 20,3 11,2 25,7 20,7 0 0 7 4 N 0 0,0
21.07.2019 23:00:00 21,9 11,0 25,7 20,7 2 1 14 8 NNO 0 0,0
21.07.2019 22:00:00 23,8 10,1 25,7 20,7 6 3 18 10 ONO 0 0,0
21.07.2019 21:00:00 24,1 10,7 25,7 20,7 6 4 14 8 O 0 0,0
21.07.2019 20:00:00 26,1 10,3 25,6 20,7 5 3 21 11 ONO 33 0,0
21.07.2019 19:00:00 30,0 9,5 25,5 20,7 10 5 24 13 SO 60 0,0
21.07.2019 18:00:00 31,2 8,2 25,3 20,7 12 6 28 15 SO 54 0,0
21.07.2019 17:00:00 31,6 8,6 25,1 20,7 11 6 31 17 SSO 46 0,0
21.07.2019 16:00:00 32,1 9,0 24,8 20,7 13 7 35 19 SSO 60 0,0
21.07.2019 15:00:00 32,3 8,5 24,5 20,7 16 9 36 19 SSO 52 0,0
21.07.2019 14:00:00 31,9 9,4 24,3 20,7 13 7 31 17 S 60 0,0
21.07.2019 13:00:00 30,4 13,2 24,1 20,7 10 5 24 13 S 49 0,0
21.07.2019 12:00:00 28,6 13,7 24,0 20,7 5 3 13 7 S 58 0,0
21.07.2019 11:00:00 26,0 13,8 24,1 20,7 4 2 9 5 S 56 0,0
21.07.2019 10:00:00 24,0 12,3 24,1 20,7 3 1 8 5 E 60 0,0
21.07.2019 09:00:00 20,8 13,5 24,2 20,6 5 3 8 4 NE 19 0,0
21.07.2019 08:00:00 18,9 12,4 24,3 20,7 0 0 5 3 N 0 0,0
21.07.2019 07:00:00 18,2 12,6 24,4 20,7 0 0 7 4 N 0 0,0
21.07.2019 06:00:00 18,2 12,2 24,5 20,6 3 2 6 4 NO 0 0,0
21.07.2019 05:00:00 18,3 12,1 24,6 20,7 3 1 6 3 NO 0 0,0
21.07.2019 04:00:00 18,7 12,2 24,7 20,6 4 2 9 5 O 0 0,0
21.07.2019 03:00:00 19,3 12,6 24,7 20,6 0 0 7 4 N 0 0,0
21.07.2019 02:00:00 19,7 12,2 24,8 20,6 0 0 4 2 N 0 0,0
21.07.2019 01:00:00 20,1 12,1 24,9 20,6 4 2 7 4 ONO 0 0,0
21.07.2019 00:00:00 20,6 11,5 24,9 20,6 0 0 10 6 N 0 0,0
20.07.2019 23:00:00 21,3 11,9 25,0 20,6 5 3 7 4 NNO 0 0,0
20.07.2019 22:00:00 22,6 11,0 24,9 20,6 2 1 13 7 SO 0 0,0
20.07.2019 21:00:00 24,0 11,3 24,9 20,6 4 2 14 8 ONO 0 0,0
20.07.2019 20:00:00 25,8 13,3 24,8 20,6 4 2 11 6 SO 11 0,0
20.07.2019 19:00:00 27,9 12,3 24,7 20,6 5 3 11 6 OSO 40 0,0
20.07.2019 18:00:00 27,6 12,4 24,6 20,6 4 2 9 5 ONO 13 0,0
20.07.2019 17:00:00 28,9 11,0 24,4 20,6 4 2 15 8 S 7 0,0
20.07.2019 16:00:00 28,7 9,4 24,2 20,6 6 3 24 13 S 0 0,0
20.07.2019 15:00:00 29,8 7,7 24,0 20,6 9 5 25 14 SSO 22 0,0
20.07.2019 14:00:00 31,2 7,6 23,8 20,6 12 6 34 19 S 60 0,0
20.07.2019 13:00:00 30,1 10,1 23,6 20,6 9 5 25 13 S 60 0,0
20.07.2019 12:00:00 27,5 12,3 23,6 20,6 4 2 14 8 S 51 0,0
20.07.2019 11:00:00 24,3 10,6 23,6 20,6 4 2 9 5 S 43 0,0
20.07.2019 10:00:00 22,8 9,9 23,7 20,6 3 2 7 4 SE 60 0,0
20.07.2019 09:00:00 20,3 10,7 23,9 20,6 5 3 9 5 ENE 60 0,0
20.07.2019 08:00:00 17,3 10,4 24,0 20,6 0 0 5 3 N 54 0,0
20.07.2019 07:00:00 14,5 9,9 24,1 20,5 3 1 7 4 N 0 0,0
20.07.2019 06:00:00 14,9 9,9 24,3 20,6 3 1 10 5 SO 0 0,0
20.07.2019 05:00:00 15,1 9,9 24,4 20,6 3 2 7 4 N 0 0,0
20.07.2019 04:00:00 15,7 10,0 24,5 20,5 3 2 6 3 ONO 0 0,0
20.07.2019 03:00:00 16,6 10,0 24,7 20,6 4 2 11 6 N 0 0,0
20.07.2019 02:00:00 17,4 10,3 24,7 20,6 0 0 6 3 N 0 0,0
20.07.2019 01:00:00 18,6 9,9 24,8 20,5 2 1 5 3 NNE 0 0,0
20.07.2019 00:00:00 20,0 9,8 24,8 20,5 3 2 9 5 N 0 0,0
19.07.2019 23:00:00 21,5 9,4 24,9 20,5 4 2 13 7 ONO 0 0,0
19.07.2019 22:00:00 22,7 8,4 24,8 20,5 7 4 18 10 O 0 0,0
19.07.2019 21:00:00 23,6 8,1 24,8 20,5 9 5 20 11 ONO 5 0,0
19.07.2019 20:00:00 25,4 8,0 24,7 20,5 9 5 19 10 ONO 36 0,0
19.07.2019 19:00:00 28,7 8,4 24,5 20,5 7 4 28 15 S 60 0,0
19.07.2019 18:00:00 29,6 8,1 24,2 20,5 10 5 29 16 S 60 0,0
19.07.2019 17:00:00 30,2 8,6 24,0 20,5 11 6 34 18 S 60 0,0
19.07.2019 16:00:00 30,5 8,2 23,6 20,5 11 6 28 15 S 60 0,0
19.07.2019 15:00:00 29,9 7,7 23,4 20,5 10 5 30 16 S 60 0,0
19.07.2019 14:00:00 29,1 8,7 23,2 20,5 8 4 17 9 S 60 0,0
19.07.2019 13:00:00 27,3 9,6 23,0 20,5 6 3 16 8 S 60 0,0
19.07.2019 12:00:00 25,1 9,4 23,0 20,5 6 3 12 7 S 60 0,0
19.07.2019 11:00:00 22,9 9,3 23,0 20,5 6 3 11 6 S 60 0,0
19.07.2019 10:00:00 20,8 8,8 23,1 20,5 2 1 8 4 SSE 60 0,0
19.07.2019 09:00:00 18,4 8,6 23,3 20,5 3 1 7 4 E 60 0,0
19.07.2019 08:00:00 15,9 9,1 23,4 20,5 3 2 6 4 NE 54 0,0
19.07.2019 07:00:00 12,7 8,6 23,6 20,5 3 1 5 3 N 0 0,0
19.07.2019 06:00:00 13,2 8,5 23,7 20,5 0 0 5 3 N 0 0,0
19.07.2019 05:00:00 14,0 8,2 23,9 20,5 3 1 8 4 N 0 0,0
19.07.2019 04:00:00 14,2 8,6 24,0 20,5 2 1 5 3 N 0 0,0
19.07.2019 03:00:00 14,6 8,3 24,1 20,5 0 0 4 2 N 0 0,0
19.07.2019 02:00:00 15,5 8,2 24,3 20,5 0 0 4 2 N 0 0,0
19.07.2019 01:00:00 16,4 8,4 24,4 20,5 3 2 5 3 N 0 0,0
19.07.2019 00:00:00 17,6 8,4 24,4 20,5 3 1 10 5 N 0 0,0
18.07.2019 23:00:00 19,1 7,2 24,4 20,4 2 1 14 8 ONO 0 0,0
18.07.2019 22:00:00 20,1 7,1 24,4 20,4 8 4 16 8 ONO 0 0,0
18.07.2019 21:00:00 22,0 7,8 24,4 20,4 5 3 9 5 O 0 0,0
18.07.2019 20:00:00 24,5 10,4 24,3 20,4 0 0 13 7 N 36 0,0
18.07.2019 19:00:00 26,4 6,4 24,2 20,5 4 2 29 16 SO 43 0,0
18.07.2019 18:00:00 26,6 6,6 24,0 20,5 12 6 35 19 NNO 46 0,0
18.07.2019 17:00:00 27,6 5,8 23,8 20,4 9 5 25 14 O 50 0,0
18.07.2019 16:00:00 28,0 6,7 23,6 20,4 11 6 25 13 S 47 0,0
18.07.2019 15:00:00 27,9 6,0 23,3 20,4 12 7 26 14 S 60 0,0
18.07.2019 14:00:00 28,1 6,2 23,1 20,4 10 5 21 11 S 60 0,0
18.07.2019 13:00:00 26,8 3,3 23,0 20,4 6 3 16 9 SSE 60 0,0
18.07.2019 12:00:00 25,1 6,3 22,9 20,4 4 2 13 7 SSO 60 0,0
18.07.2019 11:00:00 22,7 8,0 23,0 20,4 4 2 10 6 SSO 60 0,0
18.07.2019 10:00:00 20,2 9,1 23,1 20,4 4 2 9 5 SSE 60 0,0
18.07.2019 09:00:00 17,8 8,6 23,1 20,4 4 2 7 4 S 60 0,0
18.07.2019 08:00:00 15,7 10,2 23,3 20,4 2 1 5 3 S 39 0,0
18.07.2019 07:00:00 13,8 9,2 23,5 20,5 3 2 5 3 N 16 0,0
18.07.2019 06:00:00 14,1 8,3 23,6 20,4 0 0 4 2 N 0 0,0
18.07.2019 05:00:00 14,4 9,2 23,7 20,4 0 0 4 2 N 0 0,0
18.07.2019 04:00:00 15,1 9,5 23,8 20,4 0 0 8 4 N 0 0,0
18.07.2019 03:00:00 15,7 9,1 23,9 20,4 3 1 7 4 N 0 0,0
18.07.2019 02:00:00 16,2 9,6 24,1 20,4 2 1 5 3 NE 0 0,0
18.07.2019 01:00:00 17,1 9,5 24,1 20,4 0 0 4 2 N 0 0,0
18.07.2019 00:00:00 18,1 9,2 24,2 20,4 0 0 10 5 N 0 0,0
17.07.2019 23:00:00 19,8 8,2 24,2 20,4 6 3 18 10 O 0 0,0
17.07.2019 22:00:00 20,3 7,6 24,2 20,4 6 4 11 6 ONO 0 0,0
17.07.2019 21:00:00 21,6 7,0 24,1 20,4 4 2 11 6 O 0 0,0
17.07.2019 20:00:00 24,8 7,0 24,0 20,4 3 2 20 11 ONO 37 0,0
17.07.2019 19:00:00 28,0 7,8 23,8 20,4 9 5 22 12 SSO 60 0,0
17.07.2019 18:00:00 28,3 8,0 23,6 20,4 10 6 30 16 SSO 60 0,0
17.07.2019 17:00:00 28,6 7,2 23,4 20,4 11 6 29 16 S 54 0,0
17.07.2019 16:00:00 29,1 5,8 23,1 20,4 13 7 32 18 S 60 0,0
17.07.2019 15:00:00 29,2 7,7 22,8 20,4 8 4 27 15 S 60 0,0
17.07.2019 14:00:00 28,4 9,1 22,5 20,4 10 5 20 11 S 60 0,0
17.07.2019 13:00:00 27,0 7,9 22,4 20,4 5 3 16 9 SSO 60 0,0
17.07.2019 12:00:00 25,0 10,5 22,3 20,4 7 4 15 8 SSO 60 0,0
17.07.2019 11:00:00 22,9 9,7 22,3 20,4 5 3 10 6 SSE 60 0,0
17.07.2019 10:00:00 20,5 9,4 22,4 20,4 5 3 8 4 ESE 60 0,0
17.07.2019 09:00:00 18,3 10,4 22,5 20,4 4 2 6 3 ENE 60 0,0
17.07.2019 08:00:00 15,4 10,2 22,7 20,4 4 2 6 3 NE 56 0,0
17.07.2019 07:00:00 12,6 9,4 22,9 20,4 3 2 7 4 ONO 0 0,0
17.07.2019 06:00:00 12,6 9,4 23,0 20,4 3 1 7 4 ONO 0 0,0

tt = Temperatura
td = dewpoint
tt -20cm = Temperatura -20cm
tt -100cm = Temperatura -100cm
ff = velocità del vento
fx = gusts
dd = direzione del vento
sd = ore di luce
rr = precipitazioni

Stazioni seguenti

WeatherPro
AMSI
MeteoEarth